Location: Columbia
(38.9520°N, 92.3340°W)
Time: 04:48:09
(UTC-05:00)

Meteor 1-4 Rocket - Visible Passes

Search period start: 01 August 2014 00:00
Search period end: 11 August 2014 00:00
Orbit: 470 x 538 km, 81.2° (Epoch: 31 July)

Date Brightness Start Highest point End Pass type
(mag) Time Alt. Az. Time Alt. Az. Time Alt. Az.
01 Aug 5.4 02:12:25 10° NNE 02:13:30 16° NNE 02:13:30 16° NNE visible
02 Aug 5.7 01:54:04 10° NNE 01:54:40 13° NE 01:54:40 13° NE visible
03 Aug 5.4 03:10:25 10° NNW 03:10:35 11° NNW 03:10:35 11° NNW visible
04 Aug 5.5 02:51:31 10° NNW 02:51:46 12° NNW 02:51:46 12° NNW visible
05 Aug 5.6 02:32:41 10° NNW 02:32:58 12° NNW 02:32:58 12° NNW visible
06 Aug 5.7 02:13:55 10° NNW 02:14:11 12° NNW 02:14:11 12° NNW visible
07 Aug 5.9 01:55:11 10° N 01:55:24 12° N 01:55:24 12° N visible
08 Aug 6.0 01:36:30 10° N 01:36:38 11° N 01:36:38 11° N visible
09 Aug 6.1 01:17:52 10° N 01:17:52 10° N 01:17:52 10° N visible
